TimeEST,TemperatureF,Dew PointF,Humidity,Sea Level PressureIn,VisibilityMPH,Wind Direction,Wind SpeedMPH,Gust SpeedMPH,PrecipitationIn,Events,Conditions,WindDirDegrees,DateUTC
12:53 AM,69.1,66.9,93,29.95,10.0,Calm,Calm,-,N/A,,Scattered Clouds,0,2012-12-18 05:53:00
1:53 AM,69.1,66.9,93,29.95,10.0,Calm,Calm,-,N/A,,Scattered Clouds,0,2012-12-18 06:53:00
2:25 AM,68.0,66.2,94,29.93,10.0,Calm,Calm,-,N/A,,Mostly Cloudy,0,2012-12-18 07:25:00
2:53 AM,69.1,66.9,93,29.94,10.0,Calm,Calm,-,N/A,,Scattered Clouds,0,2012-12-18 07:53:00
3:53 AM,69.1,66.9,93,29.94,10.0,West,3.5,-,N/A,,Scattered Clouds,260,2012-12-18 08:53:00
4:53 AM,69.1,66.9,93,29.93,10.0,SSW,4.6,-,0.01,,Clear,200,2012-12-18 09:53:00
5:53 AM,69.1,68.0,96,29.95,10.0,SW,4.6,-,N/A,,Clear,230,2012-12-18 10:53:00
6:53 AM,66.9,66.9,100,29.97,10.0,SSW,3.5,-,N/A,,Clear,210,2012-12-18 11:53:00
7:53 AM,69.1,68.0,96,29.99,10.0,WSW,3.5,-,N/A,,Clear,250,2012-12-18 12:53:00
8:53 AM,73.0,70.0,90,30.01,10.0,West,8.1,-,N/A,,Clear,270,2012-12-18 13:53:00
9:53 AM,75.9,68.0,76,30.02,10.0,WNW,9.2,-,N/A,,Scattered Clouds,290,2012-12-18 14:53:00
10:53 AM,78.1,66.9,68,30.01,10.0,West,9.2,-,N/A,,Scattered Clouds,280,2012-12-18 15:53:00
11:53 AM,80.1,66.9,64,30.00,10.0,West,11.5,-,N/A,,Scattered Clouds,270,2012-12-18 16:53:00
12:53 PM,82.0,66.0,58,29.97,10.0,West,9.2,-,N/A,,Scattered Clouds,260,2012-12-18 17:53:00
1:53 PM,82.9,64.9,54,29.95,10.0,NW,8.1,16.1,N/A,,Scattered Clouds,310,2012-12-18 18:53:00
2:53 PM,82.9,64.0,53,29.94,10.0,West,9.2,-,N/A,,Scattered Clouds,260,2012-12-18 19:53:00
3:53 PM,84.0,63.0,49,29.94,10.0,WNW,9.2,-,N/A,,Overcast,290,2012-12-18 20:53:00
4:53 PM,82.0,63.0,52,29.95,10.0,West,8.1,-,N/A,,Clear,260,2012-12-18 21:53:00
5:53 PM,79.0,64.0,60,29.96,10.0,West,4.6,-,N/A,,Clear,280,2012-12-18 22:53:00
6:53 PM,75.0,64.9,71,29.98,10.0,West,4.6,-,N/A,,Clear,270,2012-12-18 23:53:00
7:53 PM,75.9,64.9,69,30.00,10.0,West,5.8,-,N/A,,Clear,280,2012-12-19 00:53:00
8:53 PM,75.0,64.9,71,30.01,10.0,West,4.6,-,N/A,,Clear,280,2012-12-19 01:53:00
9:53 PM,73.0,66.0,79,30.02,10.0,West,4.6,-,N/A,,Clear,280,2012-12-19 02:53:00
10:53 PM,72.0,66.0,81,30.03,10.0,WNW,3.5,-,N/A,,Partly Cloudy,300,2012-12-19 03:53:00
11:53 PM,70.0,66.0,87,30.03,10.0,WNW,4.6,-,N/A,,Clear,300,2012-12-19 04:53:00